Location: Santaluz Observatory
(32.9930°N, 117.1510°W)
Time: 05:38:31
(UTC-07:00)

Hubble Space Telescope - Visible Passes

Search period start: 29 August 2015 00:00
Search period end: 08 September 2015 00:00
Orbit: 541 x 545 km, 28.5° (Epoch: 27 August)

Date Brightness Start Highest point End Pass type
(mag) Time Alt. Az. Time Alt. Az. Time Alt. Az.
02 Sep 3.2 04:45:25 11° SSE 04:46:10 12° SSE 04:47:42 10° SE visible
03 Sep 3.0 04:37:05 15° SSE 04:37:08 15° SSE 04:39:33 10° ESE visible
04 Sep 2.8 04:28:42 18° SSE 04:28:42 18° SSE 04:31:02 10° ESE visible
05 Sep 2.8 04:20:18 19° SE 04:20:18 19° SE 04:22:21 10° ESE visible
05 Sep 1.6 05:56:07 10° WSW 06:00:02 41° S 06:03:58 10° ESE visible
06 Sep 2.9 04:11:54 19° SE 04:11:54 19° SE 04:13:35 10° ESE visible
06 Sep 1.4 05:47:20 11° WSW 05:51:03 44° S 05:55:01 10° ESE visible
07 Sep 3.2 04:03:28 17° ESE 04:03:28 17° ESE 04:04:45 10° ESE visible
07 Sep 1.4 05:38:55 15° WSW 05:42:05 45° S 05:46:03 10° ESE visible
